Kezdőlap
METAR-TAF:

METAR-TAF

Repülőterek :

Marshalltown Municipal Airport

Marshalltown, Iowa, Amerikai Egyesült Államok

földrajzi szélesség: 42-06-38N, földrajzi hosszúság: 092-54-58W, magasság: 296 m

Jelenlegi meteorológiai megfigyelések

A jelentés 20 perccel ezelõtt készült, 22:53 UTC
Nyugat-északnyugati szél 8 kt
Hőmérséklet 22°C
Páratartalom 60%
Légköri nyomás 1011 hPa
Látótávolság: 16.1 km
Kevés felhő 6500 lábon
Szakadozott felhőzet 8000 lábon
Szakadozott felhőzet 10000 lábon

METAR: KMIW 272253Z AUTO 30008KT 10SM FEW065 BKN080 BKN100 22/14 A2984 RMK AO2 SLP102 T02170139

Idő: 18:13 (23:13 UTC)


TAF: hiányzik

Meteorológiai megfigyelések és előrejelzések több, mint 4000 repülőtéren (METAR és TAF jelentéseket).

A térképen piros és sárga pontok jelzik az elérhető meteorológiai állomásokat.

Mozgassa az egeret a pont fölött, hogy megjelenjen az állomás neve.

Azután kattintson az időjárási megfigyelések és előrejelzések megtekintéséhez.

A térkép megváltoztatása: kattintson a fekete keresztel jelölt zöld gombra ráközelítéshez, a vonallal jelölt zöld gombra távolításhoz, vagy a zöld nyilakra a szomszédos térképek eléréséhez.


METAR-TAF: